Regional Weather Roundup
Issued by NWS State College, PA

Home | Current Version | Previous Version | Text Only | Print | Product List | Glossary Off
Versions: 1 2 3 4 5 6 7 8 9 10 11 12 13 14 15 16 17 18 19 20 21 22 23 24 25 26 27 28 29 30 31 32 33 34 35 36 37 38 39 40 41 42 43 44 45 46 47 48 49 50

614
ASUS41 KCTP 230010
RWRCTP

REGIONAL WEATHER ROUNDUP
NATIONAL WEATHER SERVICE STATE COLLEGE PA
700 PM EST WED FEB 22 2017

Note: "fair" indicates few or no clouds below 12,000 feet with no
significant weather and/or obstructions to visibility.

* = STATION THAT DOES NOT REPORT PRECIPITATION /E.G. RAIN...SNOW...ETC/
    THUNDER OR FOG.

PAZ002>004-007>009-013>016-020>023-029>032-230100-
WESTERN PENNSYLVANIA

CITY           SKY/WX    TMP DP  RH WIND       PRES   REMARKS
ERIE           CLOUDY    59  52  77 S10       29.81R
MEADVILLE      CLOUDY    54  51  90 CALM      29.82F FOG
FRANKLIN*      CLOUDY    54  48  82 SE3       29.84F
NEW CASTLE     CLOUDY    57  53  86 CALM      29.84R
BEAVER COUNTY  CLOUDY    61  48  63 SW8       29.84R
BUTLER*        CLOUDY    61  46  59 SW6       29.85R
PITTSBURGH INT CLOUDY    62  50  64 SW5       29.84R
PITTSBURGH     CLOUDY    62  46  55 SW5       29.83R
INDIANA*       PTCLDY    54  45  71 SE3       29.87S
LATROBE        MOCLDY    57  46  67 CALM      29.85R
WASHINGTON CO* CLOUDY    61  48  63 SW7       29.87R
$$

PAZ004>006-010>012-017>019-024>028-033>037-041-042-045-046-049>053-230100-
CENTRAL PENNSYLVANIA

CITY           SKY/WX    TMP DP  RH WIND       PRES   REMARKS
BRADFORD       FOG       48  48 100 SE3       29.85S VSB 1/4
DUBOIS         CLEAR     57  42  57 CALM      29.84S
CLEARFIELD       N/A    N/A N/A N/A MISG      29.85S
JOHNSTOWN      CLEAR     57  44  62 CALM      29.86R
ALTOONA        CLOUDY    55  42  61 CALM      29.86R
STATE COLLEGE  CLEAR     57  41  54 W5        29.86R
WILLIAMSPORT   CLOUDY    51  37  58 E3        29.88S
SELINSGROVE    CLOUDY    47  39  74 CALM      29.89S
FT INDIANTOWN  CLOUDY    52  42  69 CALM      29.89R
CAPITAL CITY   CLOUDY    57  41  55 CALM      29.89R
HARRISBURG     MOCLDY    51  42  71 SE6       29.88S
YORK           CLOUDY    46  41  82 CALM      29.88S
$$

PAZ038>040-043-044-047-048-054-055-060>062-067>071-230100-
EASTERN PENNSYLVANIA

CITY           SKY/WX    TMP DP  RH WIND       PRES   REMARKS
SCRANTON       PTCLDY    50  40  68 S3        29.88R
MOUNT POCONO   CLEAR     44  38  79 W6        29.88R
ALLENTOWN      PTCLDY    56  39  53 S3        29.90R
QUAKERTOWN*    PTCLDY    52  39  62 CALM      29.91R
READING        PTCLDY    56  43  61 CALM      29.89R
LANCASTER      CLOUDY    53  44  71 SE6       29.90R
COATESVILLE    MOCLDY    52  43  71 CALM      29.92S
POTTSTOWN      PTCLDY    54  41  61 CALM      29.92R
BLUE BELL      CLOUDY    50  41  71 CALM      29.90S
DOYLESTOWN     CLOUDY    54  42  64 CALM      29.90R
WILLOW GROVE   NOT AVBL
NORTH PHILA    CLEAR     54  43  66 CALM      29.92F
PHILADELPHIA   MOCLDY    53  43  68 S6        29.92F
$$




USA.gov is the U.S. government's official web portal to all federal, state and local government web resources and services.